STARLINK-30100, 57623

Orbit data source: Space-Track

STARLINK-30100, 57623 is a payload satellite owned by SpaceX/Seattle (US) in LEO that was launched on Fri, 11 Aug 2023 UTC via an FALCON 9 launch vehicle from the Air Force Eastern Test Range (AFETR). Payload-class satellites include a variety of spacecraft equipped with specific instruments for various scientific and technological missions. These include communications satellites like Starlink; space stations such as the ISS; scientific satellites like the Hubble; Earth observation satellites from companies like Planet Labs, Umbra, and HawkEye 360; GPS; miniature CubeSats for education and research; and military/defense satellites.

Loading next visibility...
Identifier
57623, 2023-119X
Orbit
LEO
Country
Flag of USUS
Related business
Manufacturer
SpaceX/Seattle
Mission
Operational Commercial Communications
Bus & Motor
STARLINK V2M, Unknown motor
Mass
730 kg wet, ~700 kg dry
Launch date (UTC)
2023-08-11 (3 years ago)
Launch vehicle
FALCON 9
Launch site
Air Force Eastern Test Range (AFETR)
Object type
Payload
Rocket body
Debris
Shape & HBR
Box + 2 Pan, 17.7 m
Radar Cross Section
33.884 m², Large (>1 m²)

Expand to show TLE details & history
Last TLE update: 20 hours ago

TLE from 20 hours ago
0 STARLINK-30100
1 57623U 23119X   26094.56678203  .00003152  00000-0  12395-3 0  9991
2 57623  43.0020 295.4640 0001892 276.8429  83.2207 15.27596104147040
Epoch: 2026-04-04T13:36Z
TLE epoch observation values (Epoch: 2026-04-04T13:36:09.967Z)
Latitude
-0.00004°
Longitude
-101.46228°
Altitude
482.624 km
Speed
7.626 km/s
True Right ascension
19h 41m 51s
True Declination
0° 00' 00"
Sunlit
Object was in daylight at epoch
Visualization orbit readout
Latitude
Unknown
Longitude
Unknown
Altitude
Unknown
Speed
Unknown
Apparent Right ascension
Unknown
Apparent Declination
Unknown
Sunlit
N/A
Visualization observer readout
Local Sidereal Time
15:27:45
Azimuth
Unknown
Elevation
Unknown
Doppler factor
Unknown
Orbital elements
Apogee altitude
486.244 km
Perigee altitude
483.647 km
Semi-major axis
6,863.083 km
Eccentricity
0.00019
Inclination
43.002°
RAAN
295.464°
Arg. of periapsis
276.8429°
True anomaly
83.24223°
Mean anomaly
83.2207°
Eccentric anomaly
83.23146°
Mean motion
3.81737 °/min
Orbital period
94.31 mins
BSTAR
0.00012395
Loading maneuver chart data...
Computing Atmospheric mass density...
Loading historical data...
Loading historical data...
Loading historical data...
Loading historical data...
Loading historical data...
Loading historical data...
Loading historical data...

Documentation

Showing up to 5 results
|